Regional Weather Roundup
Issued by NWS

Home | Current Version | Previous Version | Text Only | Print | Product List | Glossary On
Versions: 1 2 3 4 5 6 7 8 9 10 11 12 13 14 15 16 17 18 19 20 21 22 23 24 25 26 27 28 29 30 31 32 33 34 35 36 37 38 39 40 41 42 43 44 45 46 47 48 49 50
000
ASUS45 KPSR 020210
RWRAZ

ARIZONA REGIONAL HOURLY WEATHER ROUNDUP
NATIONAL WEATHER SERVICE PHOENIX AZ
700 PM MST SUN FEB 01 2015

NOTE: FAIR INDICATES FEW OR NO CLOUDS BELOW 12,000 FEET WITH NO
SIGNIFICANT WEATHER AND/OR OBSTRUCTIONS TO VISIBILITY.

AZZ001>003-036-020300-
NORTHWEST ARIZONA

CITY           SKY/WX    TMP DP  RH WIND       PRES   REMARKS
BULLHEAD CITY  MOCLDY    66  32  28 N13       30.09R
KINGMAN        MOCLDY    48  38  68 CALM      30.14R
$$

AZZ004>008-015-016-018-020300-
NORTH CENTRAL ARIZONA

CITY           SKY/WX    TMP DP  RH WIND       PRES   REMARKS
GRAND CANYON   CLEAR     31  24  75 CALM      30.22R
PRESCOTT       CLEAR     48  22  35 CALM      30.17R
FLAGSTAFF      CLEAR     35  20  54 NE3       30.23R
PAYSON         CLEAR     52  19  28 N9        30.18R
$$

AZZ009>014-017-020300-
NORTHEAST ARIZONA

CITY           SKY/WX    TMP DP  RH WIND       PRES   REMARKS
WINSLOW        CLEAR     40  34  79 SW3       30.19R
SAINT JOHNS    CLEAR     43  31  62 SW3       30.19R
WINDOW ROCK    CLEAR     37  19  48 CALM      30.20R
SHOW LOW       CLEAR     34  27  75 E5        30.23R WCI  30
$$

AZZ023-020300-
GREATER PHOENIX AREA

CITY           SKY/WX    TMP DP  RH WIND       PRES   REMARKS
PHOENIX        PTCLDY    63  52  67 SE5       30.05R
BUCKEYE          N/A     61  57  88 CALM      30.07R
GLENDALE       PTCLDY    63  54  72 SE5       30.06R
LUKE AFB       CLEAR     63  53  70 S8        30.04R
DEER VALLEY    CLEAR     61  48  62 CALM      30.06R
SCOTTSDALE     CLEAR     62  47  57 CALM      30.07R
MESA-FALCON    CLEAR     61  48  63 S6        30.06R
MESA-GATEWAY   PTCLDY    59  52  77 W3        30.09R
CHANDLER       CLEAR     59  52  77 VRB6      30.07R
$$

AZZ027-028-020300-
SOUTHWEST MARICOPA COUNTY AND PINAL COUNTY

CITY           SKY/WX    TMP DP  RH WIND       PRES   REMARKS
CASA GRANDE    CLEAR     57  50  77 CALM      30.08R
GILA BEND      FAIR      61  53  74 CALM      30.06R
$$

AZZ503-504-507>509-020300-
SOUTHEAST ARIZONA

CITY           SKY/WX    TMP DP  RH WIND       PRES   REMARKS
TUCSON         CLEAR     57  49  74 N8        30.09R
DAVIS-MONTHAN  CLEAR     56  50  81 NW8       30.07R
RYAN FIELD       N/A     57  50  77 NW9       30.09R
NOGALES        CLEAR     52  43  71 CALM      30.07R
SIERRA VISTA   CLEAR     50  40  68 N5        30.11R
DOUGLAS        CLEAR     50  42  74 N9        30.09R
SAFFORD        CLEAR     53  46  77 CALM      30.08R
$$

AZZ020-021-025-026-031-020300-
SOUTHWEST ARIZONA

CITY           SKY/WX    TMP DP  RH WIND       PRES   REMARKS
YUMA           CLEAR     69  41  36 N6        30.05R
$$

CAZ031-033-041-043-047-048-061-020300-
SOUTHERN CALIFORNIA

CITY           SKY/WX    TMP DP  RH WIND       PRES   REMARKS
DOWNTOWN L.A.  CLEAR     65  44  46 CALM      30.05S
L.A. AIRPORT   PTCLDY    61  56  83 W6        30.06S
SAN DIEGO      MOCLDY    65  48  54 NW6       30.08R
BURBANK        CLEAR     68  41  37 E5        30.06R
ONTARIO        PTCLDY    68  42  38 SW3       30.07R
RIVERSIDE      CLEAR     69  40  34 CALM      30.07R
PALM SPRINGS   PTCLDY    73  33  23 CALM      30.07R
EL CENTRO NAS  PTCLDY    69  36  29 S3        30.03S
IMPERIAL       PTCLDY    71  36  27 SW3       30.03S
BLYTHE         PTCLDY    65  47  52 CALM      30.05S
NEEDLES        MOCLDY    64  33  31 N7        30.08R
$$

NVZ020-UTZ003-020300-
SOUTHERN NEVADA-UTAH

CITY           SKY/WX    TMP DP  RH WIND       PRES   REMARKS
LAS VEGAS      PTCLDY    60  30  32 S7        30.09R
SALT LAKE CITY MOCLDY    43  25  49 S3        30.15R
$$

NMZ009-TXZ055-020300-
NEW MEXICO-WEST TEXAS

CITY           SKY/WX    TMP DP  RH WIND       PRES   REMARKS
ALBUQUERQUE    CLEAR     43  20  39 N9        30.17R
EL PASO        PTCLDY    53  43  68 SE3       30.10R
$$


........................KEY........................
SKY/WX - SKY CONDITION/WEATHER
TMP    - TEMPERATURE IN FAHRENHEIT
DP     - DEW POINT IN FAHRENHEIT
RH     - RELATIVE HUMIDITY IN PERCENT
WIND   - DIRECTION AND SPEED IN MILES PER HOUR (MPH)
VRB    - VARIABLE WIND DIRECTION
PRES   - MEAN SEA LEVEL PRESSURE IN INCHES OF MERCURY
         F - FALLING PRESSURE   R - RISING PRESSURE
         S - STEADY PRESSURE
VSB    - VISIBILITY IN MILES
HX     - HEAT INDEX IN FAHRENHEIT
WCI    - WIND CHILL INDEX IN FAHRENHEIT
TC     - TEMPERATURE IN CELSIUS WHICH IS ALSO KNOWN AS
         TEMPERATURE IN CENTIGRADE
AFB    - AIR FORCE BASE
         LUKE AFB IS LUKE AIR FORCE BASE
         DAVIS-MONTHAN IS DAVIS-MONTHAN AIR FORCE BASE
NAS    - NAVAL AIR STATION
         EL CENTRO NAS IS EL CENTRO NAVAL AIR STATION
N/A    - NOT AVAILABLE


USA.gov is the U.S. government's official web portal to all federal, state and local government web resources and services.